Location: Ottawa
(45.4170°N, 75.7000°W)
Time: 23:11:21
(UTC-04:00)

ISS - Pass Details

Date: 20 May 2021
Orbit: 417 x 422 km, 51.6° (Epoch: 13 June)

Event Time Altitude Azimuth Distance (km) Brightness Sun altitude
Rises 21:30:17 0° 265° (W) 2,359 0.8 -9.0°
Reaches altitude 10° 21:32:28 10° 274° (W) 1,498 -0.1 -9.3°
Maximum altitude 21:35:38 37° 344° (NNW) 670 -2.1 -9.7°
Drops below altitude 10° 21:38:48 10° 54° (NE) 1,504 -1.1 -10.1°
Sets 21:41:01 0° 63° (ENE) 2,371 -0.1 -10.4°
